Date String (YYYY-MM-DD hh:mm:ss) UTC,Instrument flags,Ambient pressure (hPa),Sample flow (lpm),Bypass flow (lpm),Sample temperature (°C),Ambient temperature (°C),ASC tube jacket temperature (°C),LED temperature (°C),Box temperature (°C),Sample RH (%),Span deviation,Mass concentration (μg/m³),Mass concentration (μg/m³),Mass concentration (μg/m³)
DateTimeUTC,F1_M11,P_M11,Q1_M11,Q2_M11,T1_M11,T2_M11,T3_M11,T4_M11,T5_M11,U1_M11,ZSPAN_M11,X2_M11,X0_M11,X1_M11
2021-11-13 13:00:00,,0826.9,5.01,0.00,24.6,23.7,00.0,33.8,26.4,15.9,0000.0,0001.25,0004.05,0000.49
2021-11-13 13:01:00,,0826.9,5.00,0.00,24.6,23.7,00.0,33.8,26.5,15.9,0000.0,0001.22,0003.82,0000.48
2021-11-13 13:02:00,,0826.9,5.00,0.00,24.6,23.6,00.0,33.8,26.4,15.9,0000.0,0001.25,0003.93,0000.49
2021-11-13 13:03:00,,0827.1,5.01,0.00,24.6,23.6,00.0,33.7,26.4,15.9,0000.0,0001.23,0003.88,0000.49
2021-11-13 13:04:00,,0827.0,5.00,0.00,24.6,23.6,00.0,33.7,26.4,15.9,0000.0,0001.24,0003.89,0000.50
2021-11-13 13:05:00,,0827.0,4.98,0.00,24.6,23.6,00.0,33.7,26.5,15.9,0000.0,0001.27,0004.36,0000.51
2021-11-13 13:06:00,,0827.1,5.01,0.00,24.6,23.6,00.0,33.7,26.4,15.8,0000.0,0001.27,0005.79,0000.50
2021-11-13 13:07:00,,0827.1,5.00,0.00,24.6,23.6,00.0,33.7,26.4,15.8,0000.0,0001.27,0005.80,0000.50
2021-11-13 13:08:00,,0827.1,4.98,0.00,24.6,23.6,00.0,33.7,26.4,15.8,0000.0,0001.24,0005.68,0000.50
2021-11-13 13:09:00,,0827.1,5.01,0.00,24.6,23.6,00.0,33.7,26.4,15.8,0000.0,0001.18,0005.94,0000.50
2021-11-13 13:10:00,,0827.1,5.01,0.00,24.6,23.6,00.0,33.7,26.4,15.8,0000.0,0001.11,0006.00,0000.49
2021-11-13 13:11:00,,0827.2,5.00,0.00,24.6,23.7,00.0,33.7,26.4,15.7,0000.0,0001.07,0005.59,0000.48
2021-11-13 13:12:00,,0827.3,5.01,0.00,24.6,23.6,00.0,33.7,26.3,15.8,0000.0,0001.00,0005.30,0000.47
2021-11-13 13:13:00,,0827.4,5.00,0.00,24.6,23.6,00.0,33.7,26.3,15.7,0000.0,0000.95,0005.31,0000.46
2021-11-13 13:14:00,,0827.3,4.99,0.00,24.6,23.7,00.0,33.7,26.3,15.7,0000.0,0000.95,0005.31,0000.45
2021-11-13 13:15:00,,0827.2,5.00,0.00,24.6,23.7,00.0,33.7,26.3,15.7,0000.0,0000.90,0005.25,0000.43
2021-11-13 13:16:00,,0827.4,5.01,0.00,24.6,23.7,00.0,33.7,26.3,15.8,0000.0,0000.81,0004.63,0000.42
2021-11-13 13:17:00,,0827.4,4.99,0.00,24.6,23.6,00.0,33.6,26.4,15.8,0000.0,0000.75,0003.69,0000.42
2021-11-13 13:18:00,,0827.4,5.01,0.00,24.6,23.6,00.0,33.6,26.3,15.7,0000.0,0000.74,0004.05,0000.41
2021-11-13 13:19:00,,0827.3,5.01,0.00,24.6,23.7,00.0,33.6,26.3,15.7,0000.0,0000.73,0004.10,0000.40
2021-11-13 13:20:00,,0827.3,4.99,0.00,24.5,23.7,00.0,33.6,26.3,15.8,0000.0,0000.72,0003.68,0000.39
2021-11-13 13:21:00,,0827.4,5.00,0.00,24.5,23.6,00.0,33.6,26.3,15.8,0000.0,0000.70,0002.75,0000.39
2021-11-13 13:22:00,,0827.3,5.00,0.00,24.5,23.6,00.0,33.6,26.3,15.8,0000.0,0000.66,0002.58,0000.38
2021-11-13 13:23:00,,0827.3,5.00,0.00,24.5,23.6,00.0,33.6,26.3,15.9,0000.0,0000.69,0002.65,0000.39
2021-11-13 13:24:00,,0827.3,5.00,0.00,24.5,23.6,00.0,33.6,26.3,15.9,0000.0,0000.67,0002.39,0000.40
2021-11-13 13:25:00,,0827.4,5.00,0.00,24.5,23.6,00.0,33.6,26.3,15.9,0000.0,0000.66,0002.29,0000.40
2021-11-13 13:26:00,,0827.4,5.00,0.00,24.5,23.6,00.0,33.6,26.2,16.0,0000.0,0000.63,0002.17,0000.40
2021-11-13 13:27:00,,0827.4,5.00,0.00,24.5,23.6,00.0,33.6,26.1,16.0,0000.0,0000.65,0002.20,0000.40
2021-11-13 13:28:00,,0827.4,5.00,0.00,24.5,23.6,00.0,33.6,26.2,15.9,0000.0,0000.68,0001.93,0000.40
2021-11-13 13:29:00,,0827.5,4.99,0.00,24.5,23.6,00.0,33.6,26.2,15.9,0000.0,0000.67,0001.23,0000.40
2021-11-13 13:30:00,,0827.5,5.00,0.00,24.5,23.6,00.0,33.6,26.3,15.8,0000.0,0000.66,0001.19,0000.40
2021-11-13 13:31:00,,0827.4,5.00,0.00,24.5,23.6,00.0,33.6,26.2,15.8,0000.0,0000.64,0001.23,0000.40
2021-11-13 13:32:00,,0827.5,5.00,0.00,24.5,23.6,00.0,33.6,26.3,15.9,0000.0,0000.64,0001.25,0000.40
2021-11-13 13:33:00,,0827.5,5.01,0.00,24.5,23.6,00.0,33.6,26.2,15.9,0000.0,0000.63,0001.21,0000.40
2021-11-13 13:34:00,,0827.5,5.00,0.00,24.5,23.6,00.0,33.6,26.2,15.9,0000.0,0000.60,0001.72,0000.39
2021-11-13 13:35:00,,0827.5,5.00,0.00,24.5,23.6,00.0,33.6,26.1,15.8,0000.0,0000.58,0002.46,0000.38
2021-11-13 13:36:00,,0827.4,5.00,0.00,24.5,23.6,00.0,33.6,26.2,15.8,0000.0,0000.55,0003.01,0000.37
2021-11-13 13:37:00,,0827.4,4.99,0.00,24.5,23.6,00.0,33.6,26.2,15.8,0000.0,0000.54,0002.99,0000.36
2021-11-13 13:38:00,,0827.4,5.01,0.00,24.5,23.6,00.0,33.6,26.2,15.8,0000.0,0000.53,0002.96,0000.36
2021-11-13 13:39:00,,0827.4,5.00,0.00,24.5,23.6,00.0,33.6,26.3,15.7,0000.0,0000.52,0002.96,0000.36
2021-11-13 13:40:00,,0827.5,4.99,0.00,24.5,23.6,00.0,33.6,26.2,15.8,0000.0,0000.51,0002.94,0000.35
2021-11-13 13:41:00,,0827.5,5.00,0.00,24.5,23.6,00.0,33.6,26.2,15.8,0000.0,0000.50,0002.88,0000.34
2021-11-13 13:42:00,,0827.5,5.00,0.00,24.5,23.6,00.0,33.6,26.3,15.8,0000.0,0000.50,0002.79,0000.35
2021-11-13 13:43:00,,0827.5,4.99,0.00,24.5,23.7,00.0,33.6,26.4,15.7,0000.0,0000.48,0002.71,0000.34
2021-11-13 13:44:00,,0827.5,5.00,0.00,24.6,23.7,00.0,33.6,26.4,15.7,0000.0,0000.47,0002.79,0000.33
2021-11-13 13:45:00,,0827.5,5.02,0.00,24.6,23.7,00.0,33.6,26.3,15.7,0000.0,0000.45,0002.69,0000.33
2021-11-13 13:46:00,,0827.6,4.99,0.00,24.6,23.6,00.0,33.6,26.3,15.6,0000.0,0000.46,0001.84,0000.32
2021-11-13 13:47:00,,0827.6,5.00,0.00,24.6,23.6,00.0,33.6,26.3,15.5,0000.0,0000.45,0001.23,0000.32
2021-11-13 13:48:00,,0827.6,5.00,0.00,24.6,23.7,00.0,33.6,26.3,15.5,0000.0,0000.42,0001.19,0000.32
2021-11-13 13:49:00,,0827.5,4.99,0.00,24.6,23.7,00.0,33.6,26.3,15.6,0000.0,0000.42,0001.22,0000.32
2021-11-13 13:50:00,,0827.5,5.01,0.00,24.6,23.7,00.0,33.6,26.3,15.7,0000.0,0000.41,0001.18,0000.32
2021-11-13 13:51:00,,0827.5,5.00,0.00,24.6,23.7,00.0,33.6,26.3,15.7,0000.0,0000.40,0001.19,0000.32
2021-11-13 13:52:00,,0827.6,4.99,0.00,24.6,23.7,00.0,33.6,26.2,15.7,0000.0,0000.39,0001.22,0000.32
2021-11-13 13:53:00,,0827.5,5.00,0.00,24.5,23.7,00.0,33.6,26.2,15.7,0000.0,0000.40,0001.38,0000.32
2021-11-13 13:54:00,,0827.6,5.01,0.00,24.5,23.7,00.0,33.6,26.3,15.8,0000.0,0000.42,0001.44,0000.32
2021-11-13 13:55:00,,0827.5,5.00,0.00,24.5,23.7,00.0,33.6,26.3,15.8,0000.0,0000.43,0001.39,0000.32
2021-11-13 13:56:00,,0827.5,5.00,0.00,24.5,23.7,00.0,33.6,26.3,15.8,0000.0,0000.47,0001.05,0000.33
2021-11-13 13:57:00,,0827.5,5.00,0.00,24.5,23.7,00.0,33.6,26.2,15.7,0000.0,0000.46,0001.01,0000.33
2021-11-13 13:58:00,,0827.5,5.00,0.00,24.5,23.7,00.0,33.6,26.3,15.6,0000.0,0000.46,0001.01,0000.33
2021-11-13 13:59:00,,0827.4,5.00,0.00,24.5,23.7,00.0,33.6,26.2,15.6,0000.0,0000.48,0001.02,0000.33
